TimeEST,TemperatureF,Dew PointF,Humidity,Sea Level PressureIn,VisibilityMPH,Wind Direction,Wind SpeedMPH,Gust SpeedMPH,PrecipitationIn,Events,Conditions,WindDirDegrees,DateUTC
12:04 AM,35.6,35.6,100,30.13,0.5,East,9.2,-,0.02,Fog-Rain,Light Rain,80,2011-11-23 05:04:00
12:16 AM,35.6,35.6,100,30.12,0.5,ENE,10.4,-,0.03,Fog-Rain,Rain,70,2011-11-23 05:16:00
12:21 AM,35.6,35.6,100,30.12,1.0,ENE,11.5,-,0.04,Rain,Light Rain,70,2011-11-23 05:21:00
12:28 AM,35.6,35.6,100,30.11,1.2,East,8.1,17.3,0.05,Rain,Rain,80,2011-11-23 05:28:00
12:40 AM,37.4,35.6,93,30.11,0.8,East,8.1,18.4,0.06,Rain,Light Rain,80,2011-11-23 05:40:00
12:54 AM,37.0,36.0,96,30.12,0.5,ENE,9.2,18.4,0.08,Fog-Rain,Rain,70,2011-11-23 05:54:00
1:07 AM,37.4,35.6,93,30.06,1.0,ENE,12.7,-,0.03,Rain,Rain,60,2011-11-23 06:07:00
1:34 AM,37.4,35.6,93,30.02,0.8,ENE,13.8,21.9,N/A,Rain,Rain,70,2011-11-23 06:34:00
1:43 AM,37.4,35.6,93,30.02,1.0,ENE,15.0,26.5,0.10,Rain,Rain,60,2011-11-23 06:43:00
1:48 AM,37.4,35.6,93,30.03,3.0,ENE,15.0,24.2,0.12,Rain,Rain,70,2011-11-23 06:48:00
1:54 AM,37.0,36.0,96,30.05,2.0,ENE,15.0,20.7,0.14,Rain,Rain,70,2011-11-23 06:54:00
2:05 AM,37.4,35.6,93,30.00,1.5,ENE,11.5,25.3,0.04,Rain,Heavy Rain,70,2011-11-23 07:05:00
2:16 AM,37.4,35.6,93,29.99,2.0,East,15.0,28.8,0.06,Rain,Rain,80,2011-11-23 07:16:00
2:24 AM,37.4,35.6,93,29.98,1.5,East,16.1,26.5,0.09,Rain,Rain,80,2011-11-23 07:24:00
2:35 AM,35.6,35.6,100,29.97,2.0,ENE,15.0,25.3,0.11,Rain,Heavy Rain,70,2011-11-23 07:35:00
2:43 AM,35.6,35.6,100,29.96,1.8,ENE,12.7,24.2,N/A,Rain,Rain,70,2011-11-23 07:43:00
2:54 AM,36.0,36.0,100,29.97,2.0,East,11.5,26.5,0.18,Rain,Rain,80,2011-11-23 07:54:00
3:03 AM,35.6,35.6,100,29.95,1.0,East,11.5,21.9,N/A,Rain,Heavy Rain,80,2011-11-23 08:03:00
3:17 AM,35.6,35.6,100,29.92,0.8,ENE,16.1,24.2,0.07,Rain,Rain,70,2011-11-23 08:17:00
3:39 AM,37.4,35.6,93,29.92,1.2,ENE,13.8,21.9,0.12,Rain,Heavy Rain,70,2011-11-23 08:39:00
3:49 AM,37.4,35.6,93,29.90,2.5,ENE,12.7,25.3,0.15,Rain,Heavy Rain,70,2011-11-23 08:49:00
3:54 AM,37.0,36.0,96,29.93,1.8,ENE,12.7,24.2,0.17,Rain,Heavy Rain,60,2011-11-23 08:54:00
4:00 AM,37.4,35.6,93,29.90,3.0,ENE,13.8,24.2,0.02,Rain,Rain,60,2011-11-23 09:00:00
4:27 AM,37.4,35.6,93,29.87,1.8,ENE,11.5,19.6,0.12,Rain,Rain,60,2011-11-23 09:27:00
4:54 AM,37.0,36.0,96,29.87,0.8,NE,13.8,21.9,0.18,Rain,Heavy Rain,50,2011-11-23 09:54:00
5:26 AM,37.4,35.6,93,29.80,1.2,ENE,13.8,21.9,0.08,Rain,Heavy Rain,60,2011-11-23 10:26:00
5:54 AM,37.0,36.0,96,29.80,2.0,NE,13.8,23.0,0.16,Rain,Rain,50,2011-11-23 10:54:00
6:09 AM,37.4,35.6,93,29.76,4.0,NE,16.1,21.9,0.05,Rain,Rain,50,2011-11-23 11:09:00
6:54 AM,37.0,37.0,100,29.74,4.0,NE,13.8,25.3,0.13,Rain,Rain,40,2011-11-23 11:54:00
7:06 AM,37.4,37.4,100,29.71,2.5,NE,15.0,23.0,0.04,Rain,Rain,50,2011-11-23 12:06:00
7:15 AM,37.4,37.4,100,29.70,3.0,NE,12.7,21.9,N/A,Rain,Rain,50,2011-11-23 12:15:00
7:43 AM,37.4,37.4,100,29.70,2.5,NE,15.0,24.2,0.14,Rain,Rain,40,2011-11-23 12:43:00
7:54 AM,37.9,37.0,97,29.71,4.0,NNE,15.0,21.9,0.18,Rain,Rain,30,2011-11-23 12:54:00
8:54 AM,37.9,37.0,97,29.68,3.0,NNE,12.7,19.6,0.04,Rain,Light Rain,30,2011-11-23 13:54:00
8:57 AM,37.4,37.4,100,29.66,1.8,NNE,13.8,21.9,0.00,Rain,Light Rain,20,2011-11-23 13:57:00
9:05 AM,37.4,37.4,100,29.65,0.2,NE,12.7,23.0,0.01,Fog-Rain,Light Rain,40,2011-11-23 14:05:00
9:51 AM,37.4,37.4,100,29.65,1.0,NE,15.0,21.9,0.01,,Mist,40,2011-11-23 14:51:00
9:54 AM,37.0,37.0,100,29.68,1.0,NNE,17.3,-,0.01,,Mist,20,2011-11-23 14:54:00
10:01 AM,37.4,37.4,100,29.65,0.2,NE,16.1,23.0,N/A,,Mist,40,2011-11-23 15:01:00
10:35 AM,37.4,35.6,93,29.63,3.0,NNE,15.0,26.5,N/A,,Overcast,30,2011-11-23 15:35:00
10:54 AM,36.0,36.0,100,29.64,5.0,NNE,15.0,26.5,N/A,,Overcast,30,2011-11-23 15:54:00
11:30 AM,35.6,35.6,100,29.61,1.0,NNE,15.0,25.3,0.00,Rain,Light Rain,30,2011-11-23 16:30:00
11:54 AM,36.0,35.1,97,29.64,0.8,NNE,12.7,26.5,0.00,,Overcast,30,2011-11-23 16:54:00
12:54 PM,35.6,35.6,100,29.60,0.5,NNE,12.7,20.7,N/A,Fog,Fog,20,2011-11-23 17:54:00
1:09 PM,33.8,33.8,100,29.60,1.0,NNE,16.1,26.5,0.00,Rain,Light Rain,30,2011-11-23 18:09:00
1:35 PM,33.8,33.8,100,29.61,2.0,NNE,13.8,23.0,0.00,Rain,Light Rain,20,2011-11-23 18:35:00
1:54 PM,33.1,33.1,100,29.66,2.0,NNE,12.7,20.7,0.00,,Overcast,30,2011-11-23 18:54:00
2:54 PM,33.8,32.0,93,29.67,2.0,NNE,13.8,27.6,N/A,,Overcast,20,2011-11-23 19:54:00
3:35 PM,33.8,30.2,87,29.70,2.0,North,21.9,28.8,0.00,,Overcast,10,2011-11-23 20:35:00
3:54 PM,33.1,32.0,96,29.74,2.0,NNE,16.1,28.8,0.00,,Overcast,20,2011-11-23 20:54:00
4:54 PM,33.1,32.0,96,29.78,3.0,NNE,10.4,19.6,0.00,,Overcast,20,2011-11-23 21:54:00
5:54 PM,33.1,30.9,92,29.80,3.0,NNE,9.2,25.3,0.00,,Overcast,20,2011-11-23 22:54:00
6:05 PM,33.8,30.2,87,29.77,10.0,North,13.8,23.0,N/A,,Overcast,10,2011-11-23 23:05:00
6:54 PM,34.0,30.0,85,29.83,10.0,NNE,16.1,23.0,N/A,,Overcast,20,2011-11-23 23:54:00
7:38 PM,33.8,30.2,87,29.83,10.0,North,12.7,21.9,N/A,,Overcast,10,2011-11-24 00:38:00
7:54 PM,34.0,30.0,85,29.87,10.0,North,15.0,19.6,N/A,,Overcast,10,2011-11-24 00:54:00
8:40 PM,33.8,28.4,81,29.86,10.0,North,13.8,19.6,N/A,,Overcast,10,2011-11-24 01:40:00
8:54 PM,34.0,28.9,82,29.90,10.0,North,13.8,-,N/A,,Overcast,360,2011-11-24 01:54:00
9:54 PM,35.6,28.4,75,29.89,10.0,North,11.5,-,N/A,,Overcast,360,2011-11-24 02:54:00
10:54 PM,35.1,28.9,78,29.94,10.0,North,10.4,-,N/A,,Overcast,350,2011-11-24 03:54:00
11:54 PM,34.0,30.0,85,29.95,10.0,NNW,9.2,-,N/A,,Mostly Cloudy,340,2011-11-24 04:54:00